Regional Weather Roundup
Issued by NWS

Home | Current Version | Previous Version | Graphics & Text | Print | Product List | Glossary On
Versions: 1 2 3 4 5 6 7 8 9 10 11 12 13 14 15 16 17 18 19 20 21 22 23 24 25 26 27 28 29 30 31 32 33 34 35 36 37 38 39 40 41 42 43 44 45 46 47 48 49 50
295
ASUS45 KSLC 091110
RWRUT

UTAH REGIONAL WEATHER ROUNDUP
NATIONAL WEATHER SERVICE SALT LAKE CITY UT
400 AM MST TUE FEB 09 2016

UTZ001>011-023>025-091200-

NORTHERN UTAH

CITY           SKY/WX    TMP DP  RH WIND       PRES   REMARKS
BRIGHAM CITY   PTCLDY    11   8  85 CALM      30.61F
HILL AFB       PTCLDY    26  16  65 E18       30.57F WCI  13
LOGAN          FOG        8   6  92 CALM      30.63F VSB 1/4
OGDEN          PTCLDY    24  19  81 S7        30.58F WCI  16
PROVO AIRPORT  PTCLDY    14  10  85 CALM      30.60F
SALT LAKE CITY PTCLDY    26  22  84 SE8       30.58F FOG     WCI  18
VERNAL         CLOUDY     8   5  87 NW6       30.54F WCI  -2
WENDOVER       PTCLDY    21  16  79 CALM      30.59F
HEBER CITY     CLEAR      5   1  85 CALM      30.58F
WEST JORDAN    CLEAR     25  21  86 SW6       30.59F WCI  18

$$

UTZ012>022-026-027-091200-

SOUTHERN/CENTRAL UTAH

CITY           SKY/WX    TMP DP  RH WIND       PRES   REMARKS
BLANDING       PTCLDY    28  18  66 N5        30.50S WCI  22
BRYCE CANYON   PTCLDY    20  13  74 W13       30.51F WCI   7
CEDAR CITY     PTCLDY    17  15  92 NE3       30.52F
DELTA          CLOUDY     7   5  90 CALM      30.60F VSB<1/4
HANKSVILLE     MOCLDY    16  14  93 NE3       30.55S
MILFORD        FOG        6   2  83 S3        30.57S VSB 1/2
MOAB/CYNLANDS  MOCLDY    17  14  88 CALM      30.51S
PRICE          PTCLDY    20  13  74 N3        30.47F
ST GEORGE      SUNNY     37  25  60 S5        30.47S WCI  34
KANAB          CLEAR     30  28  93 E7        30.48F WCI  23

$$

REGIONAL REPORTS     COLORADO/ARIZONA

CITY           SKY/WX    TMP DP  RH WIND       PRES   REMARKS
CRAIG, CO      CLOUDY    -5  -9  83 CALM      30.53F
GRAND JUNCTION CLOUDY    20  18  92 E6        30.51F WCI  12
RIFLE          CLOUDY    13   9  84 E6        30.53F WCI   4
MONTROSE       CLOUDY    17  11  77 S8        30.53F WCI   7
CORTEZ         CLOUDY    19  15  84 E6        30.43S WCI  11
PAGE, AZ       CLEAR     32  24  72 CALM      30.46F
GRAND CANYON   PTCLDY    22  17  81 CALM      30.46F
KINGMAN        CLEAR     46  24  42 E9        30.34F
FLAGSTAFF      CLEAR     40  15  36 NE13      30.43F WCI  32

$$

REGIONAL REPORTS    NEVADA/IDAHO/WYOMING

CITY           SKY/WX    TMP DP  RH WIND       PRES   REMARKS
LAS VEGAS, NV  CLEAR     48  28  46 W5        30.33F
ELY            PTCLDY     6   2  83 S14       30.57F WCI -11
ELKO           MOCLDY    10   7  87 NE3       30.59F
POCATELLO, ID  FOG       22  21  96 NE7       30.62F VSB 1/2 WCI  13
BURLEY         CLOUDY    28  27  96 E12       30.57F FOG     WCI  18
EVANSTON, WY   CLOUDY    22  16  78 S6        30.54F WCI  14
ROCK SPRINGS   CLOUDY    27  21  78 SW20      30.46S WCI  13

$$




USA.gov is the U.S. government's official web portal to all federal, state and local government web resources and services.